Regional Weather Roundup
Issued by NWS Goodland, KS

Home | Current Version | Previous Version | Text Only | Print | Product List | Glossary On
Versions: 1 2 3 4 5 6 7 8 9 10 11 12 13 14 15 16 17 18 19 20 21 22 23 24 25 26 27 28 29 30 31 32 33 34 35 36 37 38 39 40 41 42 43 44 45 46 47 48 49 50
000
ASUS43 KGLD 021608
RWRGLD

GOODLAND FORECAST AREA HOURLY WEATHER ROUNDUP
NATIONAL WEATHER SERVICE GOODLAND KS
1000 AM MDT SUN AUG 02 2015

...OFFICIAL OBSERVATIONS...

CITY           SKY/WX    TMP DP  RH WIND       PRES   REMARKS
GOODLAND KS    SUNNY     86  61  42 SE9       30.01S
HILL CITY KS   SUNNY     87  72  60 SW6       29.94S
IMPERIAL NEB   MOSUNNY   84  66  54 SE5       29.98F
MCCOOK NEB     SUNNY     86  69  56 CALM      29.94F
AKRON CO       SUNNY     84  52  33 VRB5      30.07R
BURLINGTON CO  SUNNY     84  61  45 SE10      30.06R
LIMON CO       SUNNY     84  42  22 SE15      30.12S
$$

...UNOFFICIAL OBSERVATIONS...

CITY           SKY/WX    TMP DP  RH WIND       PRES   REMARKS
COLBY KS       SUNNY     86  72  62 S9        30.00R
NORTON KS      SUNNY     88  68  51 SW5       29.93
SHARON SPRINGS   N/A     81  67  62 CALM        N/A
KIT CARSON CO    N/A     85  58  40 MISG        N/A
YUMA CO          N/A     83  62  48 CALM        N/A
$$



USA.gov is the U.S. government's official web portal to all federal, state and local government web resources and services.